Regional Weather Roundup
Issued by NWS Upton, NY

Current Version | Previous Version | Graphics & Text | Print | Product List | Glossary Off
Versions: 1 2 3 4 5 6 7 8 9 10 11 12 13 14 15 16 17 18 19 20 21 22 23 24 25 26 27 28 29 30 31 32 33 34 35 36 37 38 39 40 41 42 43 44 45 46 47 48 49 50

000
ASUS41 KOKX 231404
RWROKX

REGIONAL WEATHER ROUNDUP
NATIONAL WEATHER SERVICE NEW YORK NY
1000 AM EDT SAT JUL 23 2016

NOTE: "FAIR" INDICATES FEW OR NO CLOUDS BELOW 12,000 FEET WITH NO
SIGNIFICANT WEATHER AND/OR OBSTRUCTIONS TO VISIBILITY.

NYZ071-072-176-178-NJZ106-104-231500-
NEW YORK CITY METRO AREA

CITY           SKY/WX    TMP DP  RH WIND       PRES   REMARKS
Central Park   SUNNY     85  62  46 VRB3      29.88F
LaGuardia APRT MOSUNNY   89  63  41 W14G21    29.85F HX  90
Kennedy INTL   MOSUNNY   90  62  39 W14G21    29.86F HX  90
Newark/Liberty MOSUNNY   90  63  40 W12G21    29.86S HX  91
BRNX BOT. GARD   N/A     86  61  42 W7        29.87F
Wall St Helipt SUNNY     88  63  42 W3        29.86F
Teterboro      SUNNY     88  59  37 W12G20    29.84F
$$

NYZ177-179-078>081-231500-
LONG ISLAND NEW YORK

CITY           SKY/WX    TMP DP  RH WIND       PRES   REMARKS
FARMINGDALE    SUNNY     88  61  40 NW10G21   29.85S
ISLIP          MOSUNNY   88  61  40 NW16G24   29.84S
SHIRLEY        SUNNY     88  61  40 W16G23    29.85R
RIVERHEAD      NOT AVBL
WESTHAMPTON    SUNNY     88  61  40 NW14      29.84S
SOUTHAMPTON      N/A     84  68  58 NW12      29.79S
BRIDGEHAMPTON    N/A     82  70  65 E3        29.82S
EAST HAMPTON   FAIR      83  65  54 NW13      29.82S
MONTAUK POINT    N/A     81  69  67 W9        29.81F
$$

NYZ052-065-067-231500-
HUDSON VALLEY

CITY           SKY/WX    TMP DP  RH WIND       PRES   REMARKS
WHITE PLAINS   SUNNY     85  61  44 W10       29.86F
NEWBURGH       SUNNY     82  66  57 W14       29.87F
MONTGOMERY     SUNNY     85  65  51 NW9       29.86F
POUGHKEEPSIE   SUNNY     85  64  49 W10       29.83F
ALBANY         MOSUNNY   82  62  50 W8        29.82S
$$

NJZ001-105-106-008-010-013-015-019>022-104-231500-
NEW JERSEY

CITY           SKY/WX    TMP DP  RH WIND       PRES   REMARKS
NEWARK/LIBERTY MOSUNNY   90  63  40 W12G21    29.86S HX  91
TETERBORO      SUNNY     88  59  37 W12G20    29.84F
CALDWELL       SUNNY     88  60  38 W12       29.86F
MORRISTOWN     SUNNY     86  61  42 NW14G20   29.88R
SOMERVILLE     SUNNY     87  67  51 W8        29.86F HX  90
SUSSEX         SUNNY     85  66  53 W7        29.88S
ANDOVER          N/A     84  65  52 VRB5      29.90S
TRENTON        SUNNY     86  70  58 NW6       29.89F HX  90
MILLVILLE      SUNNY     89  72  56 NW9       29.91F HX  96
ATLANTIC CITY  SUNNY     88  72  58 W10       29.90F HX  94
WRIGHTSTOWN    SUNNY     88  72  58 W10       29.87S HX  95
TOMS RIVER     SUNNY     90  72  55 W10       29.90S HX  96
BELMAR         SUNNY     88  68  51 W10       29.89F HX  91
$$

PAZ047>061-062-071-231500-
EASTERN PENNSYLVANIA

CITY           SKY/WX    TMP DP  RH WIND       PRES   REMARKS
PHILADELPHIA   MOSUNNY   88  70  55 NW13      29.90F HX  93
ALLENTOWN      SUNNY     86  69  56 W6        29.91S HX  90
SCRANTON       SUNNY     86  60  41 W10       29.91F
$$

CTZ002-004>006-009-010-012-RIZ004-006-007-MAZ004-011-015-231500-
SOUTHERN NEW ENGLAND
 IN CT

CITY           SKY/WX    TMP DP  RH WIND       PRES   REMARKS
BRADLEY INTL   MOSUNNY   84  63  49 W10       29.80S
HARTFORD       SUNNY     88  63  43 NW12      29.80S
DANBURY        SUNNY     83  62  49 W8        29.86F
WTRBRY/OXFORD  SUNNY     81  61  50 N6        29.88S
BRIDGEPORT     SUNNY     87  64  46 W10       29.82F
MERIDEN        SUNNY     86  64  47 W7        29.82S
NEW HAVEN      SUNNY     84  63  49 NW8       29.82F
CHESTER        FAIR      84  63  48 W8        29.83S
GROTON         SUNNY     88  63  43 W12       29.78F
WILLIMANTIC    NOT AVBL

 IN RI

CITY           SKY/WX    TMP DP  RH WIND       PRES   REMARKS
PROVIDENCE     SUNNY     84  68  58 W10       29.77F
BLOCK ISLAND     N/A    N/A N/A N/A MISG        N/A
WESTERLY       SUNNY     87  60  40 W10G17    29.79F

 IN MA

CITY           SKY/WX    TMP DP  RH WIND       PRES   REMARKS
BOSTON         SUNNY     89  62  40 NW9       29.74F
WORCESTER      SUNNY     80  62  54 W16G22    29.81F
WESTFIELD      SUNNY     86  61  42 W12       29.80S
PROVINCETOWN   SUNNY     81  71  71 SW9       29.76F
NANTUCKET      SUNNY     76  70  82 SW17      29.78S
$$

ANZ330-335-338-340-345-350-353-355-231500-
COASTAL MARINE OBSERVATIONS


STATION/POSITION TIME  SKY/WX   TEMP    WIND        PRES    VSBY  WAVE
                                AIR SEA DIR/SP/G                  HT/PER
                 (UTC)          (F)     (DEG/KT/KT) (MB)    (MI)  (FT/S)
NY HARB ENTRANCE 1250            76 72  270/ 10/ 12 1010.9          3/ 6
20S FIRE ISLAND  1250            76 73  270/ 12/ 14 1010.3          4/ 6
GREAT SOUTH BAY  1315            83 80  300/ 16/ 17   N/A
23 SSW MONTAUK P 1250            73 71  260/ 10/ 12 1010.0          4/ 7
15 E BARNEGAT LI 1322               74                N/A           3/ 6
HUDSON CANYON    1250            78 76              1011.0          5/ 7
KINGS POINT      1300            81 73              1011.0
EXECUTION ROCKS  1300            83     260/  8/ 14   N/A
CENTRAL LI SOUND 1300            75 72  260/  8/ 10   N/A           1/ 3
EASTERN LI SOUND 1300            74 69  260/ 10/ 12   N/A
ROBBINS REEF     1300            83     280/ 13/ 18 1010.4
$$


>>>>>>>>>>>>>>>>>>>>>>>>>>>> KEY <<<<<<<<<<<<<<<<<<<<<<<<<<<
>                                                          <
>     SKY/WX - SKY CONDITION/PRESENT WEATHER               <
>     TMP    - TEMPERATURE IN FAHRENHEIT                   <
>     DP     - DEWPOINT IN FAHRENHEIT                      <
>     RH     - RELATIVE HUMIDITY IN PERCENT                <
>     WIND   - DIRECTION AND SPEED IN MPH                  <
>     PRES   - MEAN SEA LEVEL PRESSURE IN INCHES OF HG     <
>     WCI    - WIND CHILL INDEX                            <
>     VSB    - VISIBILITY IN MILES                         <
>     HX     - HEAT INDEX                                  <
>     TC     - TEMPERATURE IN CELSIUS                      <
>     VRB    - VARIABLE WIND DIRECTION                     <
>                                                          <
>>>>>>>>>>>>>>>>>>>>>>>>>>>> KEY <<<<<<<<<<<<<<<<<<<<<<<<<<<





USA.gov is the U.S. government's official web portal to all federal, state and local government web resources and services.